Hourly Data Report for April 24, 2021

KUGAARUK CLIMATE
NUNAVUT
Current Station Operator: ECCC - MSC

68°32'15.060" N
89°47'47.020" W
15.80 m
2303094
71407
NBB

Download Data

Hourly Data (April 2021)
Hourly Data Report for April 24, 2021
TIME
LST
Temp Definition
°C
Dew Point Definition
°C
Rel Hum Definition
%
Precip. Amount Definition
mm

Wind Dir Definition
10's deg

Wind Spd Definition
km/h
Visibility Definition
km
Stn Press Definition
kPa
Hmdx Definition


Wind Chill Definition


Weather Definition


00:00 -14.8 -17.1 82 0.0 24 22   100.44   -24 LegendNANA
01:00 -15.1 -17.1 84 0.0 25 14   100.43   -23 LegendNANA
02:00 -14.8 -16.8 85 0.0 24 16   100.43   -23 LegendNANA
03:00 -15.2 -17.3 84 0.0 23 22   100.45   -25 LegendNANA
04:00 -17.0 -19.2 83 0.0 25 19   100.49   -26 LegendNANA
05:00 -16.5 -19.3 79 0.0 25 20   100.52   -26 LegendNANA
06:00 -15.5 -18.7 76 0.0 23 22   100.57   -25 LegendNANA
07:00 -14.5 -18.2 73 0.0 27 19   100.64   -23 LegendNANA
08:00 -14.0 -18.2 71 0.2 26 17   100.72   -22 LegendNANA
09:00 -13.7 -18.0 70 0.0 26 17   100.77   -22 LegendNANA
10:00 -14.3 -19.3 66 0.0 27 20   100.82   -23 LegendNANA
11:00 -14.1 -19.5 64 0.0 27 16   100.93   -22 LegendNANA
12:00 -14.1 -19.3 64 0.0 26 13   101.01   -21 LegendNANA
13:00 -13.9 -18.9 66 0.0 25 12   101.08   -21 LegendNANA
14:00 -13.8 -18.8 66 0.0 25 11   101.13   -20 LegendNANA
15:00 -14.7 -19.3 68 0.0 24 13   101.18   -22 LegendNANA
16:00 -14.2 -18.6 69 0.0 24 11   101.27   -21 LegendNANA
17:00 -14.2 -19.0 67 0.0 26 9   101.32   -20 LegendNANA
18:00 -15.0 -19.2 70 0.0 26 14   101.36   -23 LegendNANA
19:00 -15.4 -19.5 71 0.0 25 12   101.39   -22 LegendNANA
20:00 -15.7 -19.5 73 0.0 26 11   101.42   -22 LegendNANA
21:00 -15.9 -20.3 69 0.0 28 8   101.43   -21 LegendNANA
22:00 -16.0 -19.8 72 0.0 14 4   101.44   -19 LegendNANA
23:00 -15.9 -19.6 73 0.0 7 6   101.45   -20 LegendNANA

Notes on Data Quality.

Legend

  • E = Estimated
  • M = Missing
  • NA = Not Available*
  • [empty] = Indicates an unobserved value
Date modified: